www.cux-wetter.de
Wetterdaten: Mittwoch, 26.06.2013
Datum Zeit Temp. A. Feuchte A. Luftdruck Regen Wind Richtung Richtung Sonnenschein Solar Taupunkt Windchill Windben
26.06.2013 00:00 12,9 C 72 % 1024,5 hPa 0,0 l/m 29,1 km/h (5 Bft) N 350 0 min 0 W/m 8,0 C 4,9 C 29,1 km/h (5 Bft)
26.06.2013 00:15 12,9 C 73 % 1024,5 hPa 0,0 l/m 25,6 km/h (4 Bft) N 355 0 min 0 W/m 8,2 C 5,6 C 25,6 km/h (4 Bft)
26.06.2013 00:30 12,9 C 73 % 1024,5 hPa 0,0 l/m 27,8 km/h (5 Bft) N 355 0 min 0 W/m 8,2 C 5,2 C 27,8 km/h (5 Bft)
26.06.2013 00:45 13,0 C 71 % 1024,5 hPa 0,0 l/m 25,6 km/h (4 Bft) N 350 0 min 0 W/m 7,9 C 5,8 C 25,6 km/h (4 Bft)
26.06.2013 00:59 12,9 C 71 % 1024,5 hPa 0,0 l/m 28,1 km/h (5 Bft) NW 325 0 min 0 W/m 7,8 C 5,1 C 28,1 km/h (5 Bft)
26.06.2013 01:15 12,9 C 69 % 1024,5 hPa 0,0 l/m 30,2 km/h (5 Bft) NO 45 0 min 0 W/m 7,4 C 4,7 C 30,2 km/h (5 Bft)
26.06.2013 01:30 12,9 C 66 % 1023,5 hPa 0,0 l/m 30,4 km/h (5 Bft) NO 40 0 min 0 W/m 6,7 C 4,7 C 30,4 km/h (5 Bft)
26.06.2013 01:45 12,9 C 64 % 1023,5 hPa 0,0 l/m 31,6 km/h (5 Bft) NO 45 0 min 0 W/m 6,3 C 4,4 C 31,6 km/h (5 Bft)
26.06.2013 01:59 12,8 C 63 % 1023,5 hPa 0,0 l/m 30,6 km/h (5 Bft) N-NW 345 0 min 0 W/m 5,9 C 4,5 C 30,6 km/h (5 Bft)
26.06.2013 02:15 12,8 C 66 % 1023,5 hPa 0,0 l/m 26,5 km/h (4 Bft) N-NW 345 0 min 0 W/m 6,6 C 5,3 C 26,5 km/h (4 Bft)
26.06.2013 02:30 12,8 C 66 % 1023,5 hPa 0,0 l/m 27,0 km/h (5 Bft) N-NW 340 0 min 0 W/m 6,6 C 5,2 C 27,0 km/h (5 Bft)
26.06.2013 02:45 12,8 C 69 % 1023,5 hPa 0,0 l/m 27,3 km/h (5 Bft) N-NW 330 0 min 0 W/m 7,3 C 5,1 C 27,3 km/h (5 Bft)
26.06.2013 02:59 12,8 C 66 % 1023,5 hPa 0,0 l/m 33,0 km/h (5 Bft) N-NW 335 0 min 0 W/m 6,6 C 4,1 C 33,0 km/h (5 Bft)
26.06.2013 03:15 12,8 C 67 % 1023,5 hPa 0,0 l/m 24,5 km/h (4 Bft) N-NO 15 0 min 0 W/m 6,8 C 5,7 C 24,5 km/h (4 Bft)
26.06.2013 03:30 12,7 C 68 % 1023,5 hPa 0,0 l/m 25,6 km/h (4 Bft) N 360 0 min 0 W/m 6,9 C 5,4 C 25,6 km/h (4 Bft)
26.06.2013 03:44 12,7 C 70 % 1023,5 hPa 0,0 l/m 33,4 km/h (5 Bft) N 355 0 min 0 W/m 7,4 C 3,9 C 33,4 km/h (5 Bft)
26.06.2013 04:00 12,8 C 71 % 1023,5 hPa 0,0 l/m 31,6 km/h (5 Bft) N 350 0 min 0 W/m 7,7 C 4,3 C 31,6 km/h (5 Bft)
26.06.2013 04:15 12,8 C 72 % 1023,5 hPa 0,0 l/m 32,6 km/h (5 Bft) N-NW 340 0 min 0 W/m 7,9 C 4,1 C 32,6 km/h (5 Bft)
26.06.2013 04:30 12,8 C 72 % 1023,5 hPa 0,0 l/m 30,5 km/h (5 Bft) N-NW 340 0 min 0 W/m 7,9 C 4,5 C 30,5 km/h (5 Bft)
26.06.2013 04:44 12,8 C 72 % 1023,5 hPa 0,0 l/m 33,7 km/h (5 Bft) N-NW 330 0 min 0 W/m 7,9 C 4,0 C 33,7 km/h (5 Bft)
26.06.2013 05:00 12,9 C 73 % 1022,5 hPa 0,0 l/m 31,2 km/h (5 Bft) N-NW 330 0 min 0 W/m 8,2 C 4,5 C 31,2 km/h (5 Bft)
26.06.2013 05:15 12,8 C 73 % 1022,5 hPa 0,0 l/m 31,4 km/h (5 Bft) NW 325 0 min 0 W/m 8,1 C 4,3 C 31,4 km/h (5 Bft)
26.06.2013 05:30 12,9 C 75 % 1022,5 hPa 0,0 l/m 28,0 km/h (5 Bft) N 5 0 min 0 W/m 8,6 C 5,1 C 28,0 km/h (5 Bft)
26.06.2013 05:45 12,8 C 74 % 1022,5 hPa 0,0 l/m 32,0 km/h (5 Bft) N-NW 335 0 min 0 W/m 8,3 C 4,2 C 32,0 km/h (5 Bft)
26.06.2013 06:00 12,8 C 74 % 1022,5 hPa 0,0 l/m 32,5 km/h (5 Bft) N-NW 340 0 min 0 W/m 8,3 C 4,1 C 32,5 km/h (5 Bft)
26.06.2013 06:15 12,8 C 72 % 1022,5 hPa 0,0 l/m 29,0 km/h (5 Bft) N-NW 335 0 min 0 W/m 7,9 C 4,8 C 29,0 km/h (5 Bft)
26.06.2013 06:29 12,8 C 71 % 1022,5 hPa 0,0 l/m 35,8 km/h (5 Bft) N-NW 340 0 min 0 W/m 7,7 C 3,6 C 35,8 km/h (5 Bft)
26.06.2013 06:45 12,8 C 67 % 1022,5 hPa 0,0 l/m 35,3 km/h (5 Bft) N-NW 340 0 min 0 W/m 6,8 C 3,7 C 35,3 km/h (5 Bft)
26.06.2013 07:00 13,0 C 65 % 1022,5 hPa 0,0 l/m 32,2 km/h (5 Bft) N-NW 335 0 min 0 W/m 6,6 C 4,5 C 32,2 km/h (5 Bft)
26.06.2013 07:15 13,0 C 66 % 1022,5 hPa 0,0 l/m 29,5 km/h (5 Bft) N-NW 345 0 min 0 W/m 6,8 C 5,0 C 29,5 km/h (5 Bft)
26.06.2013 07:30 13,1 C 66 % 1022,5 hPa 0,0 l/m 30,9 km/h (5 Bft) N 350 0 min 0 W/m 6,9 C 4,9 C 30,9 km/h (5 Bft)
26.06.2013 07:45 13,0 C 67 % 1022,5 hPa 0,0 l/m 29,0 km/h (5 Bft) NW 305 0 min 0 W/m 7,0 C 5,1 C 29,0 km/h (5 Bft)
26.06.2013 08:00 12,9 C 69 % 1022,5 hPa 0,0 l/m 29,0 km/h (5 Bft) NW 325 0 min 0 W/m 7,4 C 4,9 C 29,0 km/h (5 Bft)
26.06.2013 08:15 12,8 C 71 % 1022,5 hPa 0,0 l/m 27,8 km/h (5 Bft) N-NW 345 0 min 0 W/m 7,7 C 5,0 C 27,8 km/h (5 Bft)
26.06.2013 08:30 12,8 C 68 % 1022,5 hPa 0,0 l/m 37,1 km/h (5 Bft) N-NW 335 0 min 0 W/m 7,0 C 3,4 C 37,1 km/h (5 Bft)
26.06.2013 08:45 12,9 C 68 % 1022,5 hPa 0,0 l/m 38,7 km/h (6 Bft) N 10 0 min 0 W/m 7,1 C 3,4 C 38,7 km/h (6 Bft)
26.06.2013 09:00 13,0 C 67 % 1022,5 hPa 0,0 l/m 31,8 km/h (5 Bft) N-NW 330 0 min 0 W/m 7,0 C 4,6 C 31,8 km/h (5 Bft)
26.06.2013 09:15 13,4 C 66 % 1022,5 hPa 0,0 l/m 32,2 km/h (5 Bft) NW 320 0 min 0 W/m 7,2 C 5,1 C 32,2 km/h (5 Bft)
26.06.2013 09:30 13,5 C 69 % 1022,5 hPa 0,0 l/m 29,8 km/h (5 Bft) NW 320 0 min 0 W/m 7,9 C 5,6 C 29,8 km/h (5 Bft)
26.06.2013 09:45 13,5 C 70 % 1022,5 hPa 0,0 l/m 25,0 km/h (4 Bft) N-NW 330 0 min 0 W/m 8,1 C 6,6 C 25,0 km/h (4 Bft)
26.06.2013 10:00 13,6 C 66 % 1022,5 hPa 0,0 l/m 27,6 km/h (5 Bft) N 5 0 min 0 W/m 7,4 C 6,2 C 27,6 km/h (5 Bft)
26.06.2013 10:15 13,4 C 65 % 1022,5 hPa 0,0 l/m 25,0 km/h (4 Bft) N-NW 340 0 min 0 W/m 7,0 C 6,4 C 25,0 km/h (4 Bft)
26.06.2013 10:30 13,3 C 68 % 1022,5 hPa 0,0 l/m 30,5 km/h (5 Bft) N-NW 330 0 min 0 W/m 7,5 C 5,2 C 30,5 km/h (5 Bft)
26.06.2013 10:45 13,4 C 70 % 1022,5 hPa 0,0 l/m 29,8 km/h (5 Bft) N-NW 330 0 min 0 W/m 8,0 C 5,5 C 29,8 km/h (5 Bft)
26.06.2013 11:00 13,3 C 69 % 1022,5 hPa 0,0 l/m 27,7 km/h (5 Bft) NW 325 0 min 0 W/m 7,7 C 5,7 C 27,7 km/h (5 Bft)
26.06.2013 11:15 13,6 C 68 % 1022,5 hPa 0,0 l/m 36,5 km/h (5 Bft) N-NW 335 0 min 0 W/m 7,8 C 4,7 C 36,5 km/h (5 Bft)
26.06.2013 11:30 13,2 C 70 % 1022,5 hPa 0,0 l/m 25,8 km/h (4 Bft) N-NW 345 0 min 0 W/m 7,9 C 6,0 C 25,8 km/h (4 Bft)
26.06.2013 11:45 13,5 C 68 % 1022,5 hPa 0,0 l/m 34,5 km/h (5 Bft) N 350 0 min 0 W/m 7,7 C 4,8 C 34,5 km/h (5 Bft)
26.06.2013 12:00 14,4 C 66 % 1022,5 hPa 0,0 l/m 35,6 km/h (5 Bft) N-NW 345 0 min 0 W/m 8,1 C 6,0 C 35,6 km/h (5 Bft)
26.06.2013 12:15 13,8 C 68 % 1022,5 hPa 0,0 l/m 34,9 km/h (5 Bft) N-NW 340 0 min 0 W/m 8,0 C 5,2 C 34,9 km/h (5 Bft)
26.06.2013 12:30 14,4 C 67 % 1022,5 hPa 0,0 l/m 39,4 km/h (6 Bft) N 355 0 min 0 W/m 8,4 C 5,5 C 39,4 km/h (6 Bft)
26.06.2013 12:45 15,0 C 66 % 1022,5 hPa 0,0 l/m 34,4 km/h (5 Bft) NW 315 0 min 0 W/m 8,7 C 7,0 C 34,4 km/h (5 Bft)
26.06.2013 13:00 14,7 C 66 % 1023,5 hPa 0,0 l/m 30,6 km/h (5 Bft) N-NW 345 0 min 0 W/m 8,4 C 7,2 C 30,6 km/h (5 Bft)
26.06.2013 13:15 14,4 C 67 % 1023,5 hPa 0,0 l/m 31,5 km/h (5 Bft) NW 325 0 min 0 W/m 8,4 C 6,6 C 31,5 km/h (5 Bft)
26.06.2013 13:30 14,1 C 68 % 1023,5 hPa 0,0 l/m 29,5 km/h (5 Bft) N-NW 335 0 min 0 W/m 8,3 C 6,5 C 29,5 km/h (5 Bft)
26.06.2013 13:45 14,5 C 66 % 1022,5 hPa 0,0 l/m 34,0 km/h (5 Bft) N-NW 340 0 min 0 W/m 8,2 C 6,4 C 34,0 km/h (5 Bft)
26.06.2013 14:00 14,7 C 65 % 1023,5 hPa 0,0 l/m 33,5 km/h (5 Bft) N-NW 340 0 min 0 W/m 8,2 C 6,7 C 33,5 km/h (5 Bft)
26.06.2013 14:15 15,4 C 65 % 1023,5 hPa 0,0 l/m 33,7 km/h (5 Bft) N-NW 330 0 min 0 W/m 8,9 C 7,7 C 33,7 km/h (5 Bft)
26.06.2013 14:30 15,2 C 66 % 1023,5 hPa 0,0 l/m 29,5 km/h (5 Bft) N-NW 345 0 min 0 W/m 8,9 C 8,1 C 29,5 km/h (5 Bft)
26.06.2013 14:45 15,0 C 67 % 1022,5 hPa 0,0 l/m 32,3 km/h (5 Bft) N-NW 330 0 min 0 W/m 8,9 C 7,3 C 32,3 km/h (5 Bft)
26.06.2013 15:00 14,3 C 68 % 1022,5 hPa 0,0 l/m 33,2 km/h (5 Bft) N 350 0 min 0 W/m 8,5 C 6,2 C 33,2 km/h (5 Bft)
26.06.2013 15:15 14,2 C 68 % 1022,5 hPa 0,0 l/m 33,2 km/h (5 Bft) N-NW 330 0 min 0 W/m 8,4 C 6,0 C 33,2 km/h (5 Bft)
26.06.2013 15:30 14,5 C 67 % 1022,5 hPa 0,0 l/m 32,9 km/h (5 Bft) N-NW 330 0 min 0 W/m 8,4 C 6,5 C 32,9 km/h (5 Bft)
26.06.2013 15:45 14,9 C 66 % 1022,5 hPa 0,0 l/m 43,8 km/h (6 Bft) N-NW 340 0 min 0 W/m 8,6 C 5,8 C 43,8 km/h (6 Bft)
26.06.2013 16:00 14,6 C 67 % 1022,5 hPa 0,0 l/m 33,9 km/h (5 Bft) N-NW 335 0 min 0 W/m 8,5 C 6,5 C 33,9 km/h (5 Bft)
26.06.2013 16:15 14,8 C 68 % 1022,5 hPa 0,0 l/m 35,2 km/h (5 Bft) N-NW 330 0 min 0 W/m 9,0 C 6,6 C 35,2 km/h (5 Bft)
26.06.2013 16:30 15,0 C 65 % 1022,5 hPa 0,0 l/m 31,8 km/h (5 Bft) N 355 0 min 0 W/m 8,5 C 7,4 C 31,8 km/h (5 Bft)
26.06.2013 16:45 14,9 C 65 % 1022,5 hPa 0,0 l/m 39,8 km/h (6 Bft) N-NW 335 0 min 0 W/m 8,4 C 6,2 C 39,8 km/h (6 Bft)
26.06.2013 16:59 14,5 C 67 % 1022,5 hPa 0,0 l/m 36,0 km/h (5 Bft) N-NW 330 0 min 0 W/m 8,4 C 6,1 C 36,0 km/h (5 Bft)
26.06.2013 17:15 14,2 C 68 % 1022,5 hPa 0,0 l/m 33,7 km/h (5 Bft) N-NW 330 0 min 0 W/m 8,4 C 6,0 C 33,7 km/h (5 Bft)
26.06.2013 17:30 14,1 C 68 % 1022,5 hPa 0,0 l/m 36,7 km/h (5 Bft) N-NW 335 0 min 0 W/m 8,3 C 5,4 C 36,7 km/h (5 Bft)
26.06.2013 17:44 14,2 C 68 % 1022,5 hPa 0,0 l/m 33,2 km/h (5 Bft) N-NW 330 0 min 0 W/m 8,4 C 6,0 C 33,2 km/h (5 Bft)
26.06.2013 17:59 14,9 C 65 % 1022,5 hPa 0,0 l/m 44,6 km/h (6 Bft) NW 325 0 min 0 W/m 8,4 C 5,7 C 44,6 km/h (6 Bft)
26.06.2013 18:15 14,7 C 66 % 1022,5 hPa 0,0 l/m 33,5 km/h (5 Bft) N 355 0 min 0 W/m 8,4 C 6,7 C 33,5 km/h (5 Bft)
26.06.2013 18:30 14,4 C 67 % 1022,5 hPa 0,0 l/m 38,0 km/h (6 Bft) NW 325 0 min 0 W/m 8,4 C 5,7 C 38,0 km/h (6 Bft)
26.06.2013 18:44 14,1 C 69 % 1022,5 hPa 0,0 l/m 32,3 km/h (5 Bft) N-NW 335 0 min 0 W/m 8,5 C 6,0 C 32,3 km/h (5 Bft)
26.06.2013 19:00 14,4 C 68 % 1022,5 hPa 0,0 l/m 35,1 km/h (5 Bft) NW 320 0 min 0 W/m 8,6 C 6,0 C 35,1 km/h (5 Bft)
26.06.2013 19:15 14,4 C 70 % 1021,5 hPa 0,0 l/m 33,2 km/h (5 Bft) N-NW 335 0 min 0 W/m 9,0 C 6,3 C 33,2 km/h (5 Bft)
26.06.2013 19:29 14,0 C 72 % 1021,5 hPa 0,0 l/m 34,0 km/h (5 Bft) N-NW 340 0 min 0 W/m 9,0 C 5,6 C 34,0 km/h (5 Bft)
26.06.2013 19:45 13,8 C 74 % 1021,5 hPa 0,0 l/m 38,3 km/h (6 Bft) N-NW 335 0 min 0 W/m 9,2 C 4,7 C 38,3 km/h (6 Bft)
26.06.2013 20:00 13,8 C 74 % 1021,5 hPa 0,0 l/m 36,7 km/h (5 Bft) N-NW 335 0 min 0 W/m 9,2 C 5,0 C 36,7 km/h (5 Bft)
26.06.2013 20:15 13,8 C 73 % 1021,5 hPa 0,0 l/m 41,0 km/h (6 Bft) NW 320 0 min 0 W/m 9,0 C 4,4 C 41,0 km/h (6 Bft)
26.06.2013 20:30 13,8 C 75 % 1021,5 hPa 0,0 l/m 35,6 km/h (5 Bft) N-NW 340 0 min 0 W/m 9,4 C 5,1 C 35,6 km/h (5 Bft)
26.06.2013 20:45 13,6 C 75 % 1021,5 hPa 0,0 l/m 36,0 km/h (5 Bft) N-NW 335 0 min 0 W/m 9,3 C 4,8 C 36,0 km/h (5 Bft)
26.06.2013 21:00 13,5 C 75 % 1021,5 hPa 0,0 l/m 33,9 km/h (5 Bft) N-NW 330 0 min 0 W/m 9,2 C 4,9 C 33,9 km/h (5 Bft)
26.06.2013 21:14 13,4 C 76 % 1021,5 hPa 0,0 l/m 34,9 km/h (5 Bft) N-NW 335 0 min 0 W/m 9,3 C 4,6 C 34,9 km/h (5 Bft)
26.06.2013 21:30 13,2 C 77 % 1021,5 hPa 0,0 l/m 32,5 km/h (5 Bft) N-NW 335 0 min 0 W/m 9,3 C 4,7 C 32,5 km/h (5 Bft)
26.06.2013 21:45 13,2 C 78 % 1021,5 hPa 0,0 l/m 30,8 km/h (5 Bft) NW 325 0 min 0 W/m 9,4 C 5,0 C 30,8 km/h (5 Bft)
26.06.2013 22:00 13,2 C 78 % 1021,5 hPa 0,0 l/m 28,8 km/h (5 Bft) NW 325 0 min 0 W/m 9,4 C 5,4 C 28,8 km/h (5 Bft)
26.06.2013 22:15 13,2 C 79 % 1021,5 hPa 0,0 l/m 29,8 km/h (5 Bft) NW 320 0 min 0 W/m 9,6 C 5,2 C 29,8 km/h (5 Bft)
26.06.2013 22:30 13,2 C 79 % 1020,5 hPa 0,0 l/m 26,1 km/h (4 Bft) N-NW 330 0 min 0 W/m 9,6 C 5,9 C 26,1 km/h (4 Bft)
26.06.2013 22:45 13,1 C 79 % 1020,5 hPa 0,0 l/m 27,1 km/h (5 Bft) NW 320 0 min 0 W/m 9,5 C 5,6 C 27,1 km/h (5 Bft)
26.06.2013 23:00 13,0 C 80 % 1020,5 hPa 0,0 l/m 24,3 km/h (4 Bft) N-NW 335 0 min 0 W/m 9,6 C 6,1 C 24,3 km/h (4 Bft)
26.06.2013 23:15 13,0 C 79 % 1020,5 hPa 0,0 l/m 32,9 km/h (5 Bft) N-NW 330 0 min 0 W/m 9,4 C 4,4 C 32,9 km/h (5 Bft)
26.06.2013 23:30 13,0 C 79 % 1020,5 hPa 0,0 l/m 26,5 km/h (4 Bft) NW 325 0 min 0 W/m 9,4 C 5,6 C 26,5 km/h (4 Bft)
26.06.2013 23:45 13,0 C 80 % 1020,5 hPa 0,0 l/m 24,3 km/h (4 Bft) NW 320 0 min 0 W/m 9,6 C 6,1 C 24,3 km/h (4 Bft)
_ Min-Zeit 03:30 01:59 22:30 - 23:00 - - - - 01:59 08:45 23:00
Minimum _ 12,7 C 63 % 1020,5 hPa - 24,3 km/h (4 Bft) - - - - 5,9 C 3,4 C 24,3 km/h (4 Bft)
_ Max-Zeit 14:15 23:00 00:00 00:00 17:59 - - 00:00 00:00 22:15 14:30 17:59
Maximum _ 15,4 C 80 % 1024,5 hPa 0,0 l/m 44,6 km/h
NW (6 Bft)
- - 0 min 0 W/m 9,6 C 8,1 C 44,6 km/h
N-NW (6 Bft)
Durchschnitt _ 13,6 C 70 % 1022,6 hPa #0,0 l/m 31,9 km/h (5 Bft) N-NW - #0 min. 0 W/m 8,1 C 5,4 C 31,9 km/h (5 Bft)
copyright by Holger Just